Martha's Vineyard, MA

10:20 AM EDT on July 28, 2017 (GMT -0400)
Martha's Vineyard

Weather History for KMVY - October, 2012

Change the Weather History Date:

Wednesday, October 24, 2012

  Actual Average Record
Temperature  
Mean Temperature 50 °F -  
Max Temperature 55 °F 60 °F 72 °F (1979)
Min Temperature 45 °F 42 °F 19 °F (2008)
Degree Days  
Heating Degree Days 15    
Moisture  
Dew Point 48 °F    
Average Humidity 83    
Maximum Humidity 97    
Minimum Humidity 67    
Precipitation  
Precipitation 0.04 in - - ()
Sea Level Pressure  
Sea Level Pressure 30.15 in    
Wind  
Wind Speed 6 mph (NNE)    
Max Wind Speed 12 mph    
Max Gust Speed -    
Visibility 10 miles    
Events Rain    
Averages and records for this station are not official NWS values.
T = Trace of Precipitation, MM = Missing Value Source: NWS Daily Summary

Daily Weather History Graph

Daily Weather History Graph

Search for Another Location

Airport or City:

Trip Planner

Search our weather history database for the weather conditions in past years. The results will help you decide how hot, cold, wet, or windy it might be!

Date:

Astronomy

Oct. 24, 2012 Rise Set
Actual Time 7:05 AM EDT 5:47 PM EDT
Civil Twilight 6:36 AM EDT 6:15 PM EDT
Nautical Twilight 6:04 AM EDT 6:48 PM EDT
Astronomical Twilight 5:32 AM EDT 7:20 PM EDT
Moon 3:04 PM EDT (10/24) 1:53 AM EDT (10/24)
Length of Visible Light 11h 38m
Length of Day
10h 42m
Waxing Gibbous, 76% of the Moon is Illuminated
Oct 24
Waxing Gibbous
Oct 29
Full
Nov 6
Last Quarter
Nov 13
New
Nov 20
First Quarter

Hourly Weather History & Observations

Time (EDT) Temp. Windchill Dew Point Humidity Pressure Visibility Wind Dir Wind Speed Gust Speed Precip Events Conditions
12:53 AM 54.0 °F - 52.0 °F 93% 30.11 in 10.0 mi NW 4.6 mph - 0.03 in Rain Light Rain
1:53 AM 54.0 °F - 53.1 °F 97% 30.12 in 10.0 mi NNW 5.8 mph - 0.01 in   Overcast
2:53 AM 55.0 °F - 53.1 °F 93% 30.12 in 10.0 mi Calm Calm - N/A   Overcast
3:53 AM 54.0 °F - 53.1 °F 97% 30.11 in 10.0 mi NNW 4.6 mph - N/A   Overcast
4:53 AM 54.0 °F - 52.0 °F 93% 30.12 in 10.0 mi North 3.5 mph - N/A   Overcast
5:53 AM 53.1 °F - 52.0 °F 96% 30.13 in 10.0 mi North 4.6 mph - N/A   Overcast
6:53 AM 53.1 °F - 52.0 °F 96% 30.14 in 10.0 mi NNE 5.8 mph - N/A   Overcast
7:53 AM 54.0 °F - 51.1 °F 90% 30.15 in 10.0 mi NE 6.9 mph - N/A   Overcast
8:53 AM 55.0 °F - 48.9 °F 80% 30.16 in 10.0 mi NE 8.1 mph - N/A   Overcast
9:53 AM 55.9 °F - 48.0 °F 75% 30.15 in 10.0 mi NE 9.2 mph - N/A   Overcast
10:53 AM 55.0 °F - 46.9 °F 74% 30.15 in 10.0 mi NE 9.2 mph - N/A   Overcast
11:53 AM 55.9 °F - 46.9 °F 72% 30.16 in 10.0 mi NE 11.5 mph - N/A   Overcast
12:53 PM 55.9 °F - 46.9 °F 72% 30.15 in 10.0 mi NE 8.1 mph - N/A   Overcast
1:53 PM 55.9 °F - 46.9 °F 72% 30.14 in 10.0 mi NE 8.1 mph - N/A   Overcast
2:53 PM 55.0 °F - 46.0 °F 72% 30.13 in 10.0 mi NE 9.2 mph - N/A   Overcast
3:53 PM 55.9 °F - 45.0 °F 67% 30.13 in 10.0 mi NE 9.2 mph - N/A   Overcast
4:53 PM 55.0 °F - 45.0 °F 69% 30.15 in 10.0 mi NE 4.6 mph - N/A   Overcast
5:53 PM 53.1 °F - 45.0 °F 74% 30.15 in 10.0 mi NNE 4.6 mph - N/A   Overcast
6:53 PM 52.0 °F - 45.0 °F 77% 30.17 in 10.0 mi NNE 5.8 mph - N/A   Overcast
7:53 PM 52.0 °F - 46.0 °F 80% 30.19 in 10.0 mi North 4.6 mph - N/A   Overcast
9:53 PM 46.9 °F - 43.0 °F 86% 30.21 in 10.0 mi NE 4.6 mph - N/A   Clear
10:53 PM 45.0 °F 43.5 °F 43.0 °F 93% 30.22 in 10.0 mi North 3.5 mph - N/A   Mostly Cloudy
11:53 PM 46.0 °F 44.8 °F 44.1 °F 93% 30.21 in 10.0 mi WNW 3.5 mph - N/A   Overcast